カタログに戻る

FENGYUN 1C DEB

運用中SSO
NORAD 32214·DEBRIS·🇨🇳 China

打ち上げ May 10, 1999 から Taiyuan Satellite Launch Center

Loading…

次のパス (今後24時間)

TLE

最新Source: Space-Track

元期: Sep 11, 2026, 20:47 UTC

1 32214U 99025CVL 26254.86650625  .00001618  00000-0  11279-2 0  9992
2 32214  99.0315 278.6012 0176069  16.6317 158.7331 13.92870000662215

AllMySatでFENGYUN 1C DEBをリアルタイム追跡

Download on the App Store